Location: ??
(35.4032°N, 139.3073°E)
Time: 01:57:02
(UTC+00:00)

CENTAUR R/B - Pass Details

Date: 13 April 2024
Orbit: 669 x 1515 km, 63.4° (Epoch: 25 May)

Event Time Altitude Azimuth Distance (km) Brightness Sun altitude
Rises 14:51:18 0° 328° (NNW) 4,310 6.4 -45.2°
Reaches altitude 10° 14:54:01 10° 329° (NNW) 3,428 5.8 -45.1°
Enters shadow 14:58:49 39° 332° (NNW) 2,028 4.2 -45.1°
